| time (UTC) | temp F | wind direction | speed MPH | gust MPH | rain 1hr in | rain 24hr in | rain mn in | humidity % | barometer mb |
| 20260507181903 | 60 | 0.0 | 0.0 | 0.00 | 0.32 | 0.00 | 34 | 1005.9 | |
| 20260507181354 | 61 | 0.0 | 0.0 | 0.00 | 0.32 | 0.00 | 37 | 1005.9 | |
| 20260507180853 | 60 | 0.0 | 0.0 | 0.00 | 0.33 | 0.00 | 37 | 1006.0 | |
| 20260507180349 | 61 | 0.0 | 0.0 | 0.00 | 0.34 | 0.00 | 39 | 1005.9 | |
| 20260507175827 | 61 | 0.0 | 0.0 | 0.00 | 0.35 | 0.00 | 37 | 1006.0 | |
| 20260507175327 | 60 | 0.0 | 0.0 | 0.00 | 0.36 | 0.00 | 37 | 1005.9 | |
| 20260507174823 | 60 | 0.0 | 0.0 | 0.00 | 0.37 | 0.00 | 39 | 1005.9 | |
| 20260507174318 | 59 | 0.0 | 0.0 | 0.00 | 0.38 | 0.00 | 40 | 1005.9 | |
| 20260507173811 | 57 | 0.0 | 0.0 | 0.00 | 0.38 | 0.00 | 44 | 1006.0 | |
| 20260507173305 | 59 | 0.0 | 0.0 | 0.00 | 0.39 | 0.00 | 40 | 1006.0 | |
| 20260507173033 | 59 | 0.0 | 0.0 | 0.00 | 0.40 | 0.00 | 44 | 1006.0 | |
| 20260507172242 | 60 | 0.0 | 0.0 | 0.00 | 0.40 | 0.00 | 41 | 1006.2 | |
| 20260507171737 | 60 | 0.0 | 0.0 | 0.00 | 0.40 | 0.00 | 43 | 1006.2 | |
| 20260507171240 | 60 | 0.0 | 0.0 | 0.00 | 0.41 | 0.00 | 44 | 1006.3 | |
| 20260507171222 | 58 | 0.0 | 0.0 | 0.00 | 0.41 | 0.00 | 44 | 1006.5 | |
| 20260507170211 | 58 | 0.0 | 0.0 | 0.00 | 0.41 | 0.00 | 47 | 1006.4 | |
| 20260507165701 | 59 | 0.0 | 0.0 | 0.00 | 0.41 | 0.00 | 45 | 1006.5 | |
| 20260507165432 | 59 | 0.0 | 0.0 | 0.00 | 0.41 | 0.00 | 42 | 1006.5 | |
| 20260507164700 | 58 | 0.0 | 0.0 | 0.00 | 0.41 | 0.00 | 51 | 1006.6 | |
| 20260507164159 | 56 | 0.0 | 0.0 | 0.00 | 0.41 | 0.00 | 48 | 1006.6 | |
| 20260507163658 | 56 | 0.0 | 0.0 | 0.00 | 0.41 | 0.00 | 49 | 1006.7 | |
| 20260507163156 | 57 | 0.0 | 0.0 | 0.00 | 0.41 | 0.00 | 51 | 1006.7 | |
| 20260507162650 | 59 | 0.0 | 0.0 | 0.00 | 0.41 | 0.00 | 46 | 1006.7 | |
| 20260507162143 | 60 | 0.0 | 0.0 | 0.00 | 0.41 | 0.00 | 48 | 1006.7 | |
| 20260507161633 | 59 | 0.0 | 0.0 | 0.00 | 0.41 | 0.00 | 45 | 1006.7 | |
| 20260507161123 | 59 | 0.0 | 0.0 | 0.00 | 0.41 | 0.00 | 47 | 1006.8 | |
| 20260507160615 | 57 | 0.0 | 0.0 | 0.00 | 0.41 | 0.00 | 48 | 1006.8 | |
| 20260507160339 | 58 | 0.0 | 0.0 | 0.00 | 0.41 | 0.00 | 47 | 1006.9 | |
| 20260507155606 | 57 | 0.0 | 0.0 | 0.00 | 0.41 | 0.00 | 48 | 1006.9 | |
| 20260507155104 | 58 | 0.0 | 0.0 | 0.00 | 0.41 | 0.00 | 47 | 1006.9 | |
| 20260507154601 | 58 | 0.0 | 0.0 | 0.00 | 0.41 | 0.00 | 44 | 1006.9 | |
| 20260507154052 | 59 | 0.0 | 0.0 | 0.00 | 0.41 | 0.00 | 49 | 1006.9 | |
| 20260507153551 | 58 | 0.0 | 0.0 | 0.00 | 0.41 | 0.00 | 52 | 1006.8 | |
| 20260507153035 | 57 | 0.0 | 0.0 | 0.00 | 0.41 | 0.00 | 52 | 1006.9 | |
| 20260507152528 | 55 | 0.0 | 0.0 | 0.00 | 0.41 | 0.00 | 57 | 1007.1 | |
| 20260507152028 | 53 | 0.0 | 0.0 | 0.00 | 0.41 | 0.00 | 63 | 1007.2 | |
| 20260507151528 | 55 | 0.0 | 0.0 | 0.00 | 0.41 | 0.00 | 63 | 1007.2 | |
| 20260507151001 | 57 | 0.0 | 0.0 | 0.00 | 0.41 | 0.00 | 66 | 1007.1 | |
| 20260507150502 | 55 | 0.0 | 0.0 | 0.00 | 0.41 | 0.00 | 65 | 1007.2 | |
| 20260507145956 | 53 | 0.0 | 0.0 | 0.00 | 0.41 | 0.00 | 68 | 1007.2 | |
| 20260507145450 | 53 | 0.0 | 0.0 | 0.00 | 0.41 | 0.00 | 70 | 1007.2 | |
| 20260507144947 | 55 | 0.0 | 0.0 | 0.00 | 0.41 | 0.00 | 68 | 1007.2 | |
| 20260507144438 | 54 | 0.0 | 0.0 | 0.00 | 0.41 | 0.00 | 71 | 1007.3 | |
| 20260507143934 | 53 | 0.0 | 0.0 | 0.00 | 0.41 | 0.00 | 71 | 1007.3 | |
| 20260507143422 | 51 | 0.0 | 0.0 | 0.00 | 0.41 | 0.00 | 74 | 1007.3 | |
| 20260507142905 | 51 | 0.0 | 0.0 | 0.00 | 0.41 | 0.00 | 72 | 1007.2 | |
| 20260507142404 | 51 | 0.0 | 0.0 | 0.00 | 0.41 | 0.00 | 72 | 1007.3 | |
| 20260507141856 | 52 | 0.0 | 0.0 | 0.00 | 0.41 | 0.00 | 73 | 1007.3 | |
| 20260507141621 | 52 | 0.0 | 0.0 | 0.00 | 0.41 | 0.00 | 73 | 1007.3 | |
| 20260507140848 | 52 | 0.0 | 0.0 | 0.00 | 0.41 | 0.00 | 73 | 1007.2 | |
| 20260507140344 | 53 | 0.0 | 0.0 | 0.00 | 0.41 | 0.00 | 74 | 1007.3 | |
| 20260507135840 | 50 | 0.0 | 0.0 | 0.00 | 0.41 | 0.00 | 78 | 1007.4 | |
| 20260507135322 | 50 | 0.0 | 0.0 | 0.00 | 0.41 | 0.00 | 76 | 1007.4 | |
| 20260507134810 | 50 | 0.0 | 0.0 | 0.00 | 0.41 | 0.00 | 79 | 1007.4 | |
| 20260507134304 | 50 | 0.0 | 0.0 | 0.00 | 0.41 | 0.00 | 76 | 1007.4 | |
| 20260507133757 | 51 | 0.0 | 0.0 | 0.00 | 0.41 | 0.00 | 74 | 1007.5 | |
| 20260507133521 | 52 | 0.0 | 0.0 | 0.00 | 0.41 | 0.00 | 72 | 1007.6 | |
| 20260507132746 | 53 | 0.0 | 0.0 | 0.00 | 0.41 | 0.00 | 75 | 1007.6 | |
| 20260507132246 | 52 | 0.0 | 0.0 | 0.00 | 0.41 | 0.00 | 75 | 1007.6 | |
| 20260507131730 | 52 | 0.0 | 0.0 | 0.00 | 0.41 | 0.00 | 78 | 1007.7 | |
| 20260507131224 | 51 | 0.0 | 0.0 | 0.00 | 0.41 | 0.00 | 78 | 1007.8 | |
| 20260507130956 | 52 | 0.0 | 0.0 | 0.00 | 0.41 | 0.00 | 76 | 1007.8 | |
| 20260507130433 | 52 | 0.0 | 0.0 | 0.00 | 0.41 | 0.00 | 76 | 1007.8 | |
| 20260507125655 | 51 | 0.0 | 0.0 | 0.00 | 0.41 | 0.00 | 78 | 1007.8 | |
| 20260507125152 | 51 | 0.0 | 0.0 | 0.00 | 0.41 | 0.00 | 77 | 1007.7 | |
| 20260507124916 | 51 | 0.0 | 0.0 | 0.00 | 0.41 | 0.00 | 78 | 1007.6 | |
| 20260507124135 | 51 | 0.0 | 0.0 | 0.00 | 0.41 | 0.00 | 82 | 1007.5 | |
| 20260507123628 | 51 | 0.0 | 0.0 | 0.00 | 0.41 | 0.00 | 81 | 1007.6 | |
| 20260507123116 | 50 | 0.0 | 0.0 | 0.00 | 0.41 | 0.00 | 85 | 1007.6 | |
| 20260507122606 | 49 | 0.0 | 0.0 | 0.00 | 0.41 | 0.00 | 89 | 1007.6 | |
| 20260507122101 | 48 | 0.0 | 0.0 | 0.00 | 0.41 | 0.00 | 95 | 1007.6 | |
| 20260507121559 | 47 | 0.0 | 0.0 | 0.00 | 0.41 | 0.00 | 95 | 1007.6 | |
| 20260507121054 | 46 | 0.0 | 0.0 | 0.00 | 0.41 | 0.00 | 95 | 1007.7 | |
| 20260507120548 | 46 | 0.0 | 0.0 | 0.00 | 0.41 | 0.00 | 95 | 1007.8 | |
| 20260507120018 | 45 | 0.0 | 0.0 | 0.00 | 0.41 | 0.00 | 95 | 1007.8 | |
| 20260507115506 | 44 | 0.0 | 0.0 | 0.00 | 0.41 | 0.00 | 95 | 1007.9 | |
| 20260507115006 | 44 | 0.0 | 0.0 | 0.00 | 0.41 | 0.00 | 95 | 1007.9 | |
| 20260507114502 | 44 | 0.0 | 0.0 | 0.00 | 0.41 | 0.00 | 94 | 1007.9 | |
| 20260507114001 | 43 | 0.0 | 0.0 | 0.00 | 0.41 | 0.00 | 94 | 1008.0 | |
| 20260507113500 | 43 | 0.0 | 0.0 | 0.00 | 0.41 | 0.00 | 94 | 1007.9 | |
| 20260507112944 | 42 | 0.0 | 0.0 | 0.00 | 0.41 | 0.00 | 94 | 1007.9 | |
| 20260507112414 | 42 | 0.0 | 0.0 | 0.00 | 0.41 | 0.00 | 94 | 1007.8 | |
| 20260507112142 | 42 | 0.0 | 0.0 | 0.00 | 0.41 | 0.00 | 93 | 1007.9 | |
| 20260507111402 | 42 | 0.0 | 0.0 | 0.00 | 0.41 | 0.00 | 93 | 1007.9 | |
| 20260507111114 | 42 | 0.0 | 0.0 | 0.00 | 0.41 | 0.00 | 93 | 1007.8 | |
| 20260507110559 | 42 | 0.0 | 0.0 | 0.00 | 0.41 | 0.00 | 93 | 1007.6 | |
| 20260507105809 | 42 | 0.0 | 0.0 | 0.00 | 0.41 | 0.00 | 93 | 1007.5 | |
| 20260507105529 | 42 | 0.0 | 0.0 | 0.00 | 0.41 | 0.00 | 93 | 1007.6 | |
| 20260507104802 | 42 | 0.0 | 0.0 | 0.00 | 0.41 | 0.00 | 93 | 1007.4 | |
| 20260507104520 | 42 | 0.0 | 0.0 | 0.00 | 0.41 | 0.00 | 93 | 1007.3 | |
| 20260507104005 | 42 | 0.0 | 0.0 | 0.00 | 0.41 | 0.00 | 93 | 1007.3 | |
| 20260507103510 | 42 | 0.0 | 0.0 | 0.00 | 0.41 | 0.00 | 93 | 1007.2 | |
| 20260507103350 | 42 | 0.0 | 0.0 | 0.00 | 0.41 | 0.00 | 93 | 1007.3 | |
| 20260507102222 | 42 | 0.0 | 0.0 | 0.00 | 0.41 | 0.00 | 93 | 1007.3 | |
| 20260507101713 | 42 | 0.0 | 0.0 | 0.00 | 0.41 | 0.00 | 93 | 1007.3 | |
| 20260507101211 | 42 | 0.0 | 0.0 | 0.00 | 0.41 | 0.00 | 93 | 1007.6 | |
| 20260507100704 | 42 | 0.0 | 0.0 | 0.00 | 0.41 | 0.00 | 93 | 1007.6 | |
| 20260507100404 | 42 | 0.0 | 0.0 | 0.00 | 0.41 | 0.00 | 93 | 1007.3 | |
| 20260507095633 | 42 | 0.0 | 0.0 | 0.00 | 0.41 | 0.00 | 93 | 1007.3 | |
| 20260507095103 | 42 | 0.0 | 0.0 | 0.00 | 0.41 | 0.00 | 93 | 1007.6 | |
| 20260507094557 | 42 | 0.0 | 0.0 | 0.00 | 0.41 | 0.00 | 93 | 1007.7 | |
| 20260507094051 | 43 | 0.0 | 0.0 | 0.00 | 0.41 | 0.00 | 93 | 1007.6 | |
| 20260507093809 | 43 | 0.0 | 0.0 | 0.00 | 0.41 | 0.00 | 93 | 1007.5 | |
| 20260507093242 | 43 | 0.0 | 0.0 | 0.00 | 0.41 | 0.00 | 93 | 1007.4 | |
| 20260507092506 | 43 | 0.0 | 0.0 | 0.00 | 0.41 | 0.00 | 93 | 1007.5 | |
| 20260507091959 | 43 | 0.0 | 0.0 | 0.00 | 0.41 | 0.00 | 93 | 1007.7 | |
| 20260507091437 | 43 | 0.0 | 0.0 | 0.00 | 0.41 | 0.00 | 93 | 1007.7 | |
| 20260507090935 | 43 | 0.0 | 0.0 | 0.00 | 0.41 | 0.00 | 93 | 1007.5 | |
| 20260507090412 | 43 | 0.0 | 0.0 | 0.00 | 0.41 | 0.00 | 93 | 1007.3 | |
| 20260507085852 | 43 | 0.0 | 0.0 | 0.00 | 0.41 | 0.00 | 93 | 1007.0 | |
| 20260507085534 | 43 | 0.0 | 0.0 | 0.00 | 0.41 | 0.00 | 93 | 1006.9 | |
| 20260507084803 | 43 | 0.0 | 0.0 | 0.00 | 0.41 | 0.00 | 93 | 1007.0 | |
| 20260507084532 | 43 | 0.0 | 0.0 | 0.00 | 0.41 | 0.00 | 93 | 1007.1 | |
| 20260507083726 | 44 | 0.0 | 0.0 | 0.00 | 0.41 | 0.00 | 93 | 1007.1 | |
| 20260507083207 | 44 | 0.0 | 0.0 | 0.00 | 0.41 | 0.00 | 93 | 1007.1 | |
| 20260507082704 | 44 | 0.0 | 0.0 | 0.00 | 0.41 | 0.00 | 93 | 1007.0 | |
| 20260507082201 | 44 | 0.0 | 0.0 | 0.00 | 0.41 | 0.00 | 93 | 1007.2 | |
| 20260507081651 | 44 | 0.0 | 0.0 | 0.00 | 0.41 | 0.00 | 93 | 1006.9 | |
| 20260507081110 | 44 | 0.0 | 0.0 | 0.00 | 0.41 | 0.00 | 93 | 1006.9 | |
| 20260507080602 | 44 | 0.0 | 0.0 | 0.00 | 0.41 | 0.00 | 93 | 1007.0 | |
| 20260507080106 | 44 | 0.0 | 0.0 | 0.00 | 0.41 | 0.00 | 93 | 1007.0 | |
| 20260507075559 | 44 | 0.0 | 0.0 | 0.00 | 0.41 | 0.00 | 93 | 1006.9 | |
| 20260507075101 | 44 | 0.0 | 0.0 | 0.00 | 0.41 | 0.00 | 93 | 1006.9 | |
| 20260507074553 | 44 | 0.0 | 0.0 | 0.00 | 0.41 | 0.00 | 93 | 1006.9 | |
| 20260507074319 | 44 | 0.0 | 0.0 | 0.00 | 0.41 | 0.00 | 93 | 1006.9 | |
| 20260507073509 | 45 | 0.0 | 0.0 | 0.00 | 0.41 | 0.00 | 92 | 1006.8 | |
| 20260507073014 | 45 | 0.0 | 0.0 | 0.00 | 0.41 | 0.00 | 92 | 1007.1 | |
| 20260507072503 | 45 | 0.0 | 0.0 | 0.00 | 0.41 | 0.00 | 93 | 1006.7 | |
| 20260507071934 | 45 | 0.0 | 0.0 | 0.00 | 0.41 | 0.00 | 93 | 1006.4 | |
| 20260507071427 | 45 | 0.0 | 0.0 | 0.00 | 0.41 | 0.00 | 93 | 1006.5 | |
| 20260507070905 | 45 | 0.0 | 0.0 | 0.00 | 0.41 | 0.00 | 93 | 1006.4 | |
| 20260507070402 | 45 | 0.0 | 0.0 | 0.00 | 0.41 | 0.00 | 93 | 1006.4 | |
| 20260507065906 | 45 | 0.0 | 0.0 | 0.00 | 0.41 | 0.00 | 93 | 1006.2 | |
| 20260507065902 | 45 | 0.0 | 0.0 | 0.00 | 0.41 | 0.00 | 93 | 1006.7 | |
| 20260507064854 | 45 | 0.0 | 0.0 | 0.00 | 0.41 | 0.00 | 93 | 1006.7 | |
| 20260507064345 | 46 | 0.0 | 0.0 | 0.00 | 0.41 | 0.00 | 93 | 1006.7 | |
| 20260507063833 | 46 | 0.0 | 0.0 | 0.00 | 0.41 | 0.00 | 93 | 1006.5 | |
| 20260507063306 | 46 | 0.0 | 0.0 | 0.00 | 0.41 | 0.00 | 92 | 1006.7 | |
| 20260507062801 | 46 | 0.0 | 0.0 | 0.00 | 0.41 | 0.00 | 92 | 1006.5 | |
| 20260507062306 | 46 | 0.0 | 0.0 | 0.00 | 0.41 | 0.00 | 92 | 1006.6 | |
| 20260507061746 | 46 | 0.0 | 0.0 | 0.00 | 0.41 | 0.00 | 92 | 1006.7 | |
| 20260507061238 | 46 | 0.0 | 0.0 | 0.00 | 0.41 | 0.00 | 92 | 1006.4 | |
| 20260507060724 | 46 | 0.0 | 0.0 | 0.00 | 0.41 | 0.00 | 92 | 1006.3 | |
| 20260507060220 | 46 | 0.0 | 0.0 | 0.00 | 0.41 | 0.00 | 92 | 1006.5 | |
| 20260507055703 | 46 | 0.0 | 0.0 | 0.00 | 0.41 | 0.00 | 92 | 1006.6 | |
| 20260507055205 | 46 | 0.0 | 0.0 | 0.00 | 0.41 | 0.00 | 92 | 1006.6 | |
| 20260507054700 | 47 | 0.0 | 0.0 | 0.00 | 0.41 | 0.00 | 92 | 1006.8 | |
| 20260507054430 | 47 | 0.0 | 0.0 | 0.00 | 0.41 | 0.00 | 92 | 1006.7 | |
| 20260507053634 | 47 | 0.0 | 0.0 | 0.00 | 0.41 | 0.00 | 92 | 1006.6 | |
| 20260507053132 | 47 | 0.0 | 0.0 | 0.00 | 0.41 | 0.00 | 92 | 1006.6 | |
| 20260507052622 | 47 | 0.0 | 0.0 | 0.00 | 0.41 | 0.00 | 92 | 1006.5 | |
| 20260507052104 | 47 | 0.0 | 0.0 | 0.00 | 0.41 | 0.00 | 92 | 1006.3 | |
| 20260507051601 | 47 | 0.0 | 0.0 | 0.00 | 0.41 | 0.00 | 92 | 1006.1 | |
| 20260507051050 | 47 | 0.0 | 0.0 | 0.00 | 0.41 | 0.00 | 92 | 1006.2 | |
| 20260507050546 | 48 | 0.0 | 0.0 | 0.00 | 0.41 | 0.00 | 92 | 1006.2 | |
| 20260507050020 | 48 | 0.0 | 0.0 | 0.00 | 0.41 | 0.00 | 92 | 1006.3 | |
| 20260507045506 | 48 | 0.0 | 0.0 | 0.00 | 0.41 | 0.00 | 92 | 1006.2 | |
| 20260507045000 | 48 | 0.0 | 0.0 | 0.00 | 0.41 | 0.00 | 92 | 1006.3 | |
| 20260507044452 | 48 | 0.0 | 0.0 | 0.00 | 0.41 | 0.00 | 92 | 1006.3 | |
| 20260507043934 | 48 | 0.0 | 0.0 | 0.00 | 0.41 | 0.00 | 92 | 1006.3 | |
| 20260507043428 | 48 | 0.0 | 0.0 | 0.00 | 0.41 | 0.00 | 92 | 1006.4 | |
| 20260507042904 | 48 | 0.0 | 0.0 | 0.00 | 0.41 | 0.00 | 92 | 1006.4 | |
| 20260507042626 | 48 | 0.0 | 0.0 | 0.00 | 0.41 | 0.00 | 92 | 1006.7 | |
| 20260507041830 | 49 | 0.0 | 0.0 | 0.01 | 0.41 | 0.00 | 92 | 1006.6 | |
| 20260507041306 | 49 | 0.0 | 0.0 | 0.01 | 0.41 | 0.00 | 91 | 1006.5 | |
| 20260507040758 | 49 | 0.0 | 0.0 | 0.01 | 0.41 | 0.00 | 91 | 1006.5 | |
| 20260507040258 | 49 | 0.0 | 0.0 | 0.01 | 0.41 | 0.00 | 92 | 1006.4 | |
| 20260507035754 | 49 | 0.0 | 0.0 | 0.02 | 0.41 | 0.41 | 91 | 1006.3 | |
| 20260507035245 | 49 | 0.0 | 0.0 | 0.03 | 0.41 | 0.41 | 91 | 1006.3 | |
| 20260507034724 | 49 | 0.0 | 0.0 | 0.04 | 0.41 | 0.41 | 91 | 1006.3 | |
| 20260507034455 | 49 | 0.0 | 0.0 | 0.05 | 0.41 | 0.41 | 91 | 1006.3 | |
| 20260507033716 | 50 | 0.0 | 0.0 | 0.05 | 0.41 | 0.41 | 91 | 1006.4 | |
| 20260507033209 | 50 | 0.0 | 0.0 | 0.05 | 0.41 | 0.41 | 91 | 1006.3 | |
| 20260507032652 | 50 | 0.0 | 0.0 | 0.06 | 0.41 | 0.41 | 91 | 1006.3 | |
| 20260507032143 | 50 | 0.0 | 0.0 | 0.06 | 0.41 | 0.41 | 91 | 1006.3 | |
| 20260507031639 | 51 | 0.0 | 0.0 | 0.05 | 0.40 | 0.40 | 91 | 1006.3 | |
| 20260507031409 | 51 | 0.0 | 0.0 | 0.05 | 0.40 | 0.40 | 91 | 1006.3 | |
| 20260507031125 | 51 | 0.0 | 0.0 | 0.05 | 0.40 | 0.40 | 91 | 1006.3 | |
| 20260507030123 | 51 | 0.0 | 0.0 | 0.06 | 0.40 | 0.40 | 91 | 1006.5 | |
| 20260507025606 | 51 | 0.0 | 0.0 | 0.06 | 0.39 | 0.39 | 91 | 1006.3 | |
| 20260507025106 | 52 | 0.0 | 0.0 | 0.07 | 0.38 | 0.38 | 91 | 1006.5 | |
| 20260507024602 | 52 | 0.0 | 0.0 | 0.07 | 0.37 | 0.37 | 91 | 1006.3 | |
| 20260507024100 | 52 | 0.0 | 0.0 | 0.06 | 0.36 | 0.36 | 91 | 1006.3 | |
| 20260507023548 | 52 | 0.0 | 0.0 | 0.06 | 0.36 | 0.36 | 91 | 1006.1 | |
| 20260507023313 | 53 | 0.0 | 0.0 | 0.06 | 0.36 | 0.36 | 91 | 1006.0 | |
| 20260507022511 | 53 | 0.0 | 0.0 | 0.05 | 0.35 | 0.35 | 91 | 1006.0 | |
| 20260507022007 | 53 | 0.0 | 0.0 | 0.05 | 0.35 | 0.35 | 91 | 1006.0 | |
| 20260507021449 | 54 | 0.0 | 0.0 | 0.06 | 0.35 | 0.35 | 91 | 1006.0 | |
| 20260507020945 | 54 | 0.0 | 0.0 | 0.06 | 0.35 | 0.35 | 91 | 1005.8 | |
| 20260507020702 | 54 | 0.0 | 0.0 | 0.07 | 0.35 | 0.35 | 91 | 1005.5 | |
| 20260507020142 | 55 | 0.0 | 0.0 | 0.06 | 0.34 | 0.34 | 91 | 1005.6 | |
| 20260507015412 | 55 | 0.0 | 0.0 | 0.06 | 0.33 | 0.33 | 91 | 1005.7 | |
| 20260507014904 | 55 | 0.0 | 0.0 | 0.04 | 0.31 | 0.31 | 91 | 1005.6 | |
| 20260507014358 | 55 | 0.0 | 0.0 | 0.06 | 0.30 | 0.30 | 91 | 1005.5 | |
| 20260507013838 | 56 | 0.0 | 0.0 | 0.08 | 0.30 | 0.30 | 91 | 1005.5 | |
| 20260507013320 | 56 | 0.0 | 0.0 | 0.08 | 0.30 | 0.30 | 91 | 1005.3 | |
| 20260507012814 | 56 | 0.0 | 0.0 | 0.08 | 0.30 | 0.30 | 91 | 1005.2 | |
| 20260507012306 | 56 | 0.0 | 0.0 | 0.08 | 0.30 | 0.30 | 91 | 1005.2 | |
| 20260507011803 | 57 | 0.0 | 0.0 | 0.07 | 0.29 | 0.29 | 91 | 1005.3 | |
| 20260507011758 | 57 | 0.0 | 0.0 | 0.08 | 0.30 | 0.30 | 91 | 1005.2 | |
| 20260507011013 | 57 | 0.0 | 0.0 | 0.08 | 0.29 | 0.29 | 91 | 1005.2 | |
| 20260507010236 | 58 | 0.0 | 0.0 | 0.07 | 0.28 | 0.28 | 92 | 1005.1 | |
| 20260507005720 | 58 | 0.0 | 0.0 | 0.07 | 0.28 | 0.28 | 92 | 1005.1 | |
| 20260507005438 | 58 | 0.0 | 0.0 | 0.06 | 0.27 | 0.27 | 92 | 1005.0 | |
| 20260507004708 | 59 | 0.0 | 0.0 | 0.05 | 0.26 | 0.27 | 92 | 1004.9 | |
| 20260507004148 | 59 | 0.0 | 0.0 | 0.02 | 0.23 | 0.23 | 93 | 1004.8 | |
| 20260507003637 | 59 | 0.0 | 0.0 | 0.01 | 0.22 | 0.22 | 93 | 1004.5 | |
| 20260507003129 | 59 | 0.0 | 0.0 | 0.01 | 0.22 | 0.22 | 93 | 1004.4 | |
| 20260507002622 | 59 | 0.0 | 0.0 | 0.01 | 0.22 | 0.22 | 93 | 1004.4 | |
| 20260507002347 | 59 | 0.0 | 0.0 | 0.01 | 0.22 | 0.22 | 93 | 1004.3 | |
| 20260507001610 | 59 | 0.0 | 0.0 | 0.01 | 0.22 | 0.22 | 93 | 1004.3 | |
| 20260507001100 | 59 | 0.0 | 0.0 | 0.01 | 0.22 | 0.22 | 93 | 1004.3 | |
| 20260507000836 | 59 | 0.0 | 0.0 | 0.00 | 0.21 | 0.21 | 92 | 1004.1 | |
| 20260507000046 | 59 | 0.0 | 0.0 | 0.00 | 0.21 | 0.21 | 92 | 1004.1 | |
| 20260506235532 | 59 | 0.0 | 0.0 | 0.00 | 0.21 | 0.21 | 92 | 1004.1 | |
| 20260506235004 | 59 | 0.0 | 0.0 | 0.00 | 0.21 | 0.21 | 92 | 1004.1 | |
| 20260506234501 | 59 | 0.0 | 0.0 | 0.00 | 0.21 | 0.21 | 92 | 1004.0 | |
| 20260506234004 | 59 | 0.0 | 0.0 | 0.00 | 0.21 | 0.21 | 92 | 1004.1 | |
| 20260506233500 | 59 | 0.0 | 0.0 | 0.00 | 0.22 | 0.21 | 92 | 1004.0 | |
| 20260506232947 | 59 | 0.0 | 0.0 | 0.00 | 0.22 | 0.21 | 92 | 1004.0 | |
| 20260506232434 | 59 | 0.0 | 0.0 | 0.00 | 0.22 | 0.21 | 92 | 1003.8 | |
| 20260506232409 | 59 | 0.0 | 0.0 | 0.00 | 0.23 | 0.21 | 92 | 1003.8 | |
| 20260506231406 | 60 | 0.0 | 0.0 | 0.00 | 0.24 | 0.21 | 92 | 1003.8 | |
| 20260506230905 | 60 | 0.0 | 0.0 | 0.00 | 0.24 | 0.21 | 92 | 1004.0 | |
| 20260506230404 | 60 | 0.0 | 0.0 | 0.00 | 0.25 | 0.21 | 92 | 1003.8 | |
| 20260506225857 | 60 | 0.0 | 0.0 | 0.00 | 0.25 | 0.21 | 92 | 1004.0 | |
| 20260506225624 | 60 | 0.0 | 0.0 | 0.00 | 0.25 | 0.21 | 92 | 1003.8 | |
| 20260506224847 | 60 | 0.0 | 0.0 | 0.00 | 0.25 | 0.21 | 92 | 1003.8 | |
| 20260506224342 | 60 | 0.0 | 0.0 | 0.00 | 0.25 | 0.21 | 92 | 1004.0 | |
| 20260506223835 | 60 | 0.0 | 0.0 | 0.00 | 0.25 | 0.21 | 92 | 1004.1 | |
| 20260506223322 | 60 | 0.0 | 0.0 | 0.00 | 0.25 | 0.21 | 92 | 1004.0 | |
| 20260506222803 | 60 | 0.0 | 0.0 | 0.00 | 0.25 | 0.21 | 92 | 1004.2 | |
| 20260506222305 | 60 | 0.0 | 0.0 | 0.00 | 0.25 | 0.21 | 92 | 1004.0 | |
| 20260506221804 | 60 | 0.0 | 0.0 | 0.00 | 0.25 | 0.21 | 93 | 1004.0 | |
| 20260506221245 | 60 | 0.0 | 0.0 | 0.00 | 0.25 | 0.21 | 92 | 1004.2 | |
| 20260506220744 | 60 | 0.0 | 0.0 | 0.00 | 0.25 | 0.21 | 92 | 1004.2 | |
| 20260506220237 | 60 | 0.0 | 0.0 | 0.00 | 0.25 | 0.21 | 93 | 1004.2 | |
| 20260506215723 | 61 | 0.0 | 0.0 | 0.01 | 0.25 | 0.21 | 93 | 1004.2 | |
| 20260506215216 | 61 | 0.0 | 0.0 | 0.01 | 0.25 | 0.21 | 93 | 1004.3 | |
| 20260506214718 | 61 | 0.0 | 0.0 | 0.01 | 0.25 | 0.21 | 93 | 1004.2 | |
| 20260506214440 | 61 | 0.0 | 0.0 | 0.01 | 0.25 | 0.21 | 93 | 1004.2 | |
| 20260506213705 | 61 | 0.0 | 0.0 | 0.01 | 0.25 | 0.21 | 93 | 1004.2 | |
| 20260506213145 | 61 | 0.0 | 0.0 | 0.01 | 0.25 | 0.21 | 93 | 1004.2 | |
| 20260506212627 | 61 | 0.0 | 0.0 | 0.01 | 0.25 | 0.21 | 93 | 1004.3 | |
| 20260506212114 | 61 | 0.0 | 0.0 | 0.01 | 0.25 | 0.21 | 93 | 1004.4 | |
| 20260506211614 | 61 | 0.0 | 0.0 | 0.01 | 0.25 | 0.21 | 93 | 1004.4 | |
| 20260506211105 | 61 | 0.0 | 0.0 | 0.01 | 0.25 | 0.21 | 93 | 1004.4 | |
| 20260506210837 | 61 | 0.0 | 0.0 | 0.02 | 0.25 | 0.21 | 93 | 1004.5 | |
| 20260506210336 | 61 | 0.0 | 0.0 | 0.02 | 0.25 | 0.21 | 93 | 1004.4 | |
| 20260506205819 | 61 | 0.0 | 0.0 | 0.02 | 0.24 | 0.20 | 93 | 1004.4 | |
| 20260506205039 | 61 | 0.0 | 0.0 | 0.03 | 0.24 | 0.20 | 93 | 1004.5 | |
| 20260506204540 | 61 | 0.0 | 0.0 | 0.03 | 0.24 | 0.20 | 93 | 1004.5 | |
| 20260506204032 | 61 | 0.0 | 0.0 | 0.03 | 0.24 | 0.20 | 93 | 1004.5 | |
| 20260506203530 | 61 | 0.0 | 0.0 | 0.04 | 0.24 | 0.20 | 93 | 1004.6 | |
| 20260506203023 | 61 | 0.0 | 0.0 | 0.05 | 0.24 | 0.20 | 93 | 1004.6 | |
| 20260506202514 | 61 | 0.0 | 0.0 | 0.06 | 0.24 | 0.20 | 93 | 1004.8 | |
| 20260506202006 | 61 | 0.0 | 0.0 | 0.06 | 0.24 | 0.20 | 93 | 1004.8 | |
| 20260506201505 | 61 | 0.0 | 0.0 | 0.06 | 0.24 | 0.20 | 93 | 1004.7 | |
| 20260506201227 | 61 | 0.0 | 0.0 | 0.07 | 0.23 | 0.19 | 93 | 1004.8 | |
| 20260506200952 | 61 | 0.0 | 0.0 | 0.07 | 0.24 | 0.20 | 93 | 1004.9 | |
| 20260506195936 | 61 | 0.0 | 0.0 | 0.07 | 0.23 | 0.19 | 93 | 1004.9 | |
| 20260506195434 | 60 | 0.0 | 0.0 | 0.06 | 0.22 | 0.18 | 93 | 1005.0 | |
| 20260506194930 | 60 | 0.0 | 0.0 | 0.05 | 0.21 | 0.17 | 93 | 1005.1 | |
| 20260506194638 | 60 | 0.0 | 0.0 | 0.06 | 0.21 | 0.17 | 93 | 1005.0 | |
| 20260506193903 | 60 | 0.0 | 0.0 | 0.05 | 0.20 | 0.17 | 93 | 1005.1 | |
| 20260506193403 | 60 | 0.0 | 0.0 | 0.05 | 0.19 | 0.16 | 92 | 1005.1 | |
| 20260506192851 | 60 | 0.0 | 0.0 | 0.05 | 0.19 | 0.15 | 93 | 1005.2 | |
| 20260506192345 | 60 | 0.0 | 0.0 | 0.04 | 0.18 | 0.14 | 93 | 1005.2 | |
| 20260506191834 | 60 | 0.0 | 0.0 | 0.05 | 0.18 | 0.14 | 93 | 1005.2 | |
| 20260506191330 | 60 | 0.0 | 0.0 | 0.05 | 0.18 | 0.14 | 92 | 1005.0 | |
| 20260506190822 | 60 | 0.0 | 0.0 | 0.05 | 0.17 | 0.13 | 92 | 1005.3 | |
| 20260506190314 | 60 | 0.0 | 0.0 | 0.05 | 0.16 | 0.12 | 92 | 1005.5 | |
| 20260506185809 | 60 | 0.0 | 0.0 | 0.06 | 0.16 | 0.12 | 92 | 1005.7 | |
| 20260506185534 | 60 | 0.0 | 0.0 | 0.07 | 0.16 | 0.12 | 92 | 1005.8 | |
| 20260506184755 | 60 | 0.0 | 0.0 | 0.07 | 0.15 | 0.11 | 92 | 1005.7 | |
| 20260506184248 | 61 | 0.0 | 0.0 | 0.08 | 0.15 | 0.11 | 92 | 1006.0 | |
| 20260506184013 | 61 | 0.0 | 0.0 | 0.07 | 0.14 | 0.10 | 92 | 1006.1 | |
| 20260506183214 | 61 | 0.0 | 0.0 | 0.08 | 0.14 | 0.10 | 92 | 1006.0 | |
| 20260506182711 | 61 | 0.0 | 0.0 | 0.09 | 0.14 | 0.10 | 91 | 1006.0 |